Back to catalog

ONEWEB-0601

AliveCommunicationsPO
NORAD 54665·PAYLOAD·🇬🇧 United Kingdom

Launched Dec 8, 2022 from Cape Canaveral Space Force Station

Loading…

Next Passes (next 24 hours)

TLE

FreshSource: CelesTrak SupGP

Epoch: Sep 14, 2026, 14:32 UTC

1 54665C 22166Z   26257.60606898 -.00001838  00000+0 -44559-2 0  2575
2 54665  87.9276 226.1921 0002334  87.5393  24.5962 13.21828190    11

Track ONEWEB-0601 in real time with AllMySat

Download on the App Store